Weather History for Sedona, AZ

Change the Weather History Date:

Saturday, November 30, 2013

  Actual Average Record
Temperature  
Mean Temperature 52 °F -  
Max Temperature 62 °F 57 °F 64 °F (2011)
Min Temperature 42 °F 30 °F 28 °F (2010)
Degree Days  
Heating Degree Days 13    
Growing Degree Days 2 (Base 50)    
Moisture  
Dew Point 32 °F    
Average Humidity 54    
Maximum Humidity 66    
Minimum Humidity 34    
Precipitation  
Precipitation 0.00 in - - ()
Sea Level Pressure  
Sea Level Pressure 30.24 in    
Wind  
Wind Speed 12 mph (ENE)    
Max Wind Speed 17 mph    
Max Gust Speed 24 mph    
Visibility 10 miles    
Events      
Averages and records for this station are not official NWS values.
T = Trace of Precipitation, MM = Missing Value Source: NWS Daily Summary

Daily Weather History Graph

Daily Weather History Graph

Search for Another Location

Airport:

Trip Planner

Search our weather history database for the weather conditions in past years. The results will help you decide how hot, cold, wet, or windy it might be!

Date:

Astronomy

Nov. 30, 2013 Rise Set
Actual Time 7:15 AM MST 5:15 PM MST
Civil Twilight 6:48 AM MST 5:43 PM MST
Nautical Twilight 6:16 AM MST 6:14 PM MST
Astronomical Twilight 5:46 AM MST 6:45 PM MST
Moon 4:36 AM MST (11/30) 3:38 PM MST (11/30)
Length of Visible Light 10h 55m
Length of Day
10h 00m
Waning Crescent, 7% of the Moon is Illuminated
Nov 30
Waning Crescent
Dec 2
New
Dec 9
First Quarter
Dec 17
Full
Dec 25
Last Quarter

Hourly Weather History & Observations

Time (MST) Temp. Windchill Dew Point Humidity Pressure Visibility Wind Dir Wind Speed Gust Speed Precip Events Conditions
12:15 AM 44.6 °F 38.4 °F 32.0 °F 61% 30.25 in 10.0 mi NE 12.7 mph - N/A   Clear
12:35 AM 46.4 °F 40.1 °F 32.0 °F 57% 30.25 in 10.0 mi NE 15.0 mph - N/A   Clear
12:55 AM 44.6 °F 38.1 °F 32.0 °F 61% 30.25 in 10.0 mi NE 13.8 mph - N/A   Clear
1:15 AM 44.6 °F 38.1 °F 32.0 °F 61% 30.25 in 10.0 mi NE 13.8 mph - N/A   Clear
1:35 AM 44.6 °F 38.1 °F 32.0 °F 61% 30.25 in 10.0 mi NE 13.8 mph - N/A   Clear
1:55 AM 44.6 °F 38.1 °F 32.0 °F 61% 30.25 in 10.0 mi NE 13.8 mph - N/A   Clear
2:15 AM 44.6 °F 38.8 °F 32.0 °F 61% 30.25 in 10.0 mi NE 11.5 mph - N/A   Clear
2:35 AM 44.6 °F 38.1 °F 32.0 °F 61% 30.25 in 10.0 mi NE 13.8 mph 19.6 mph N/A   Clear
2:55 AM 44.6 °F 38.1 °F 32.0 °F 61% 30.25 in 10.0 mi NE 13.8 mph 18.4 mph N/A   Clear
3:15 AM 44.6 °F 37.8 °F 32.0 °F 61% 30.25 in 10.0 mi NE 15.0 mph - N/A   Clear
3:35 AM 44.6 °F 38.1 °F 32.0 °F 61% 30.25 in 10.0 mi NE 13.8 mph - N/A   Clear
3:55 AM 44.6 °F 37.4 °F 32.0 °F 61% 30.25 in 10.0 mi NE 16.1 mph 20.7 mph N/A   Clear
4:15 AM 42.8 °F 35.8 °F 32.0 °F 66% 30.25 in 10.0 mi NE 13.8 mph 20.7 mph N/A   Clear
4:35 AM 44.6 °F 37.4 °F 32.0 °F 61% 30.25 in 10.0 mi NE 16.1 mph - N/A   Clear
4:55 AM 44.6 °F 37.4 °F 32.0 °F 61% 30.24 in 10.0 mi NE 16.1 mph - N/A   Clear
5:15 AM 44.6 °F 37.8 °F 32.0 °F 61% 30.25 in 10.0 mi ENE 15.0 mph - N/A   Clear
5:35 AM 42.8 °F 35.8 °F 32.0 °F 66% 30.25 in 10.0 mi NE 13.8 mph 19.6 mph N/A   Clear
5:55 AM 42.8 °F 35.1 °F 32.0 °F 66% 30.24 in 10.0 mi ENE 16.1 mph - N/A   Clear
6:15 AM 42.8 °F 34.8 °F 32.0 °F 66% 30.25 in 10.0 mi ENE 17.3 mph - N/A   Clear
6:35 AM 42.8 °F 35.4 °F 32.0 °F 66% 30.25 in 10.0 mi ENE 15.0 mph - N/A   Clear
6:55 AM 42.8 °F 35.8 °F 32.0 °F 66% 30.25 in 10.0 mi ENE 13.8 mph 18.4 mph N/A   Clear
7:15 AM 42.8 °F 35.8 °F 32.0 °F 66% 30.26 in 10.0 mi ENE 13.8 mph 18.4 mph N/A   Clear
7:35 AM 42.8 °F 35.4 °F 32.0 °F 66% 30.26 in 10.0 mi ENE 15.0 mph - N/A   Clear
7:55 AM 42.8 °F 36.2 °F 32.0 °F 66% 30.27 in 10.0 mi ENE 12.7 mph - N/A   Clear
8:15 AM 42.8 °F 35.8 °F 32.0 °F 66% 30.27 in 10.0 mi ENE 13.8 mph 18.4 mph N/A   Clear
8:35 AM 44.6 °F 38.8 °F 32.0 °F 61% 30.28 in 10.0 mi ENE 11.5 mph 19.6 mph N/A   Clear
8:55 AM 46.4 °F 41.5 °F 32.0 °F 57% 30.28 in 10.0 mi ENE 10.4 mph - N/A   Clear
9:15 AM 46.4 °F 41.9 °F 32.0 °F 57% 30.28 in 10.0 mi East 9.2 mph 16.1 mph N/A   Clear
9:35 AM 50.0 °F - 32.0 °F 50% 30.29 in 10.0 mi East 10.4 mph 16.1 mph N/A   Clear
9:55 AM 50.0 °F - 32.0 °F 50% 30.29 in 10.0 mi East 9.2 mph - N/A   Clear
10:15 AM 51.8 °F - 32.0 °F 47% 30.28 in 10.0 mi East 9.2 mph - N/A   Clear
10:35 AM 51.8 °F - 32.0 °F 47% 30.28 in 10.0 mi East 8.1 mph - N/A   Clear
10:55 AM 53.6 °F - 32.0 °F 44% 30.28 in 10.0 mi East 4.6 mph - N/A   Clear
11:15 AM 55.4 °F - 32.0 °F 41% 30.27 in 10.0 mi East 4.6 mph - N/A   Clear
11:35 AM 55.4 °F - 33.8 °F 44% 30.26 in 10.0 mi NE 4.6 mph - N/A   Clear
11:55 AM 55.4 °F - 33.8 °F 44% 30.25 in 10.0 mi Calm Calm - N/A   Clear
12:15 PM 55.4 °F - 33.8 °F 44% 30.24 in 10.0 mi Calm Calm - N/A   Clear
12:35 PM 57.2 °F - 33.8 °F 41% 30.23 in 10.0 mi Calm Calm - N/A   Clear
12:55 PM 59.0 °F - 33.8 °F 39% 30.22 in 10.0 mi Calm Calm - N/A   Clear
1:15 PM 60.8 °F - 33.8 °F 36% 30.21 in 10.0 mi SE 4.6 mph - N/A   Clear
1:35 PM 60.8 °F - 33.8 °F 36% 30.21 in 10.0 mi South 3.5 mph - N/A   Clear
1:55 PM 60.8 °F - 33.8 °F 36% 30.21 in 10.0 mi SSE 5.8 mph - N/A   Clear
2:15 PM 62.6 °F - 33.8 °F 34% 30.20 in 10.0 mi SW 4.6 mph - N/A   Clear
2:35 PM 60.8 °F - 33.8 °F 36% 30.18 in 10.0 mi Calm Calm - N/A   Clear
2:55 PM 60.8 °F - 33.8 °F 36% 30.18 in 10.0 mi South 3.5 mph - N/A   Clear
3:15 PM 60.8 °F - 32.0 °F 34% 30.18 in 10.0 mi SW 3.5 mph - N/A   Clear
3:35 PM 59.0 °F - 32.0 °F 36% 30.18 in 10.0 mi Calm Calm - N/A   Clear
3:55 PM 60.8 °F - 32.0 °F 34% 30.18 in 10.0 mi South 3.5 mph - N/A   Clear
4:15 PM 59.0 °F - 32.0 °F 36% 30.18 in 10.0 mi Calm Calm - N/A   Clear
4:35 PM 57.2 °F - 32.0 °F 38% 30.18 in 10.0 mi Calm Calm - N/A   Clear
4:55 PM 55.4 °F - 32.0 °F 41% 30.19 in 10.0 mi Calm Calm - N/A   Clear
5:15 PM 55.4 °F - 33.8 °F 44% 30.19 in 10.0 mi Calm Calm - N/A   Clear
5:35 PM 55.4 °F - 33.8 °F 44% 30.19 in 10.0 mi NE 3.5 mph - N/A   Clear
5:55 PM 51.8 °F - 32.0 °F 47% 30.19 in 10.0 mi ENE 12.7 mph - N/A   Clear
6:15 PM 51.8 °F - 32.0 °F 47% 30.21 in 10.0 mi NE 13.8 mph 19.6 mph N/A   Clear
6:35 PM 50.0 °F - 32.0 °F 50% 30.20 in 10.0 mi ENE 15.0 mph - N/A   Clear
6:55 PM 48.2 °F - 32.0 °F 54% 30.21 in 10.0 mi NE 15.0 mph 23.0 mph N/A   Clear
7:15 PM 46.4 °F 39.8 °F 32.0 °F 57% 30.21 in 10.0 mi NE 16.1 mph - N/A   Clear
7:35 PM 46.4 °F 39.8 °F 32.0 °F 57% 30.22 in 10.0 mi ENE 16.1 mph - N/A   Clear
7:55 PM 46.4 °F 39.8 °F 32.0 °F 57% 30.22 in 10.0 mi NE 16.1 mph - N/A   Clear
8:15 PM 46.4 °F 39.5 °F 32.0 °F 57% 30.23 in 10.0 mi NE 17.3 mph 21.9 mph N/A   Clear
8:35 PM 44.6 °F 37.2 °F 32.0 °F 61% 30.24 in 10.0 mi NE 17.3 mph 24.2 mph N/A   Clear
8:55 PM 44.6 °F 37.4 °F 32.0 °F 61% 30.24 in 10.0 mi NE 16.1 mph 23.0 mph N/A   Clear
9:15 PM 44.6 °F 37.4 °F 32.0 °F 61% 30.25 in 10.0 mi NE 16.1 mph 21.9 mph N/A   Clear
9:35 PM 44.6 °F 37.4 °F 32.0 °F 61% 30.25 in 10.0 mi NE 16.1 mph - N/A   Clear
9:55 PM 44.6 °F 37.8 °F 32.0 °F 61% 30.26 in 10.0 mi NE 15.0 mph - N/A   Clear
10:15 PM 44.6 °F 37.4 °F 32.0 °F 61% 30.26 in 10.0 mi NE 16.1 mph - N/A   Clear
10:35 PM 44.6 °F 37.8 °F 32.0 °F 61% 30.26 in 10.0 mi NE 15.0 mph 19.6 mph N/A   Clear
10:55 PM 44.6 °F 38.1 °F 32.0 °F 61% 30.26 in 10.0 mi NE 13.8 mph - N/A   Clear
11:15 PM 44.6 °F 38.1 °F 32.0 °F 61% 30.26 in 10.0 mi NE 13.8 mph - N/A   Clear
11:35 PM 44.6 °F 37.4 °F 32.0 °F 61% 30.26 in 10.0 mi NE 16.1 mph 20.7 mph N/A   Clear
11:55 PM 42.8 °F 35.1 °F 32.0 °F 66% 30.26 in 10.0 mi NE 16.1 mph - N/A   Clear